Location: Ahausen
(50.4985°N, 8.2722°E)
Time: 11:26:04
(UTC+00:00)

Cosmos 1975 - Pass Details

Date: 18 September 2020
Orbit: 540 x 562 km, 82.5° (Epoch: 25 October)

Event Time Altitude Azimuth Distance (km) Brightness Sun altitude
Rises 18:44:59 0° 202° (SSW) 2,745 6.5 -12.0°
Reaches altitude 10° 18:47:12 10° 208° (SSW) 1,853 5.6 -12.4°
Maximum altitude 18:51:10 49° 284° (WNW) 730 3.9 -13.0°
Drops below altitude 10° 18:55:10 10° 1° (N) 1,863 5.8 -13.6°
Sets 18:57:24 0° 7° (N) 2,761 6.6 -13.9°
